Regional Weather Roundup
Issued by NWS

Home | Current Version | Previous Version | Text Only | Print | Product List | Glossary Off
Versions: 1 2 3 4 5 6 7 8 9 10 11 12 13 14 15 16 17 18 19 20 21 22 23 24 25 26 27 28 29 30 31 32 33 34 35 36 37 38 39 40 41 42 43 44 45 46 47 48 49 50

000
ASUS43 KFSD 010402
RWRSD

WEATHER ROUNDUP FOR SOUTH DAKOTA
NATIONAL WEATHER SERVICE SIOUX FALLS SD
1100 PM CDT FRI SEP 30 2016

NOTE: "FAIR" INDICATES FEW OR NO CLOUDS BELOW 12,000 FEET WITH NO
SIGNIFICANT WEATHER AND/OR OBSTRUCTIONS TO VISIBILITY.


SDZ001>005-009-010-012>017-010500-
NORTHWEST AND NORTH CENTRAL SOUTH DAKOTA

CITY           SKY/WX    TMP DP  RH WIND       PRES   REMARKS
BUFFALO          N/A     61  46  57 E8        29.95S
FAITH            N/A     64  48  56 SE18      30.00S
MOBRIDGE       PTCLDY    63  43  48 SE17G26   30.04S
$$

SDZ012>016-024>037-041>051-057-063-072>074-010500-
SOUTHWEST AND SOUTH CENTRAL SOUTH DAKOTA

CITY           SKY/WX    TMP DP  RH WIND       PRES   REMARKS
RAPID CTY ARPT CLEAR     62  48  60 S10       30.03R
PIERRE         CLOUDY    61  45  55 SE16      30.06S
CUSTER         CLEAR     53  43  68 CALM      30.16R
ELLSWORTH AFB  CLEAR     63  50  62 S13       30.02R
PHILIP         CLOUDY    61  48  62 E8        30.02R
PINE RIDGE     CLOUDY    66  48  52 S12       30.07R
WINNER         FAIR      60  46  59 SE12      30.11R
$$

SDZ004>011-016>023-039-040-010500-
NORTHEAST SOUTH DAKOTA

CITY           SKY/WX    TMP DP  RH WIND       PRES   REMARKS
ABERDEEN       PTCLDY    55  45  68 SE7       30.14S
WATERTOWN      PTCLDY    58  45  62 SE9       30.18S
SISSETON         N/A     48  45  89 S3        30.18S
$$

SDZ017-020-022-023-036>040-048>070-010500-
SOUTHEAST SOUTH DAKOTA

CITY           SKY/WX    TMP DP  RH WIND       PRES   REMARKS
SIOUX FALLS    CLOUDY    51  46  83 NE3       30.18R
HURON          PTCLDY    55  46  71 SE8       30.14S
CHAMBERLAIN    PTCLDY    57  48  72 SE7       30.12F
MITCHELL       PTCLDY    51  44  77 SE6       30.16R
YANKTON        CLOUDY    55  46  71 CALM      30.15S
$$

ABBREVIATIONS USED IN REMARKS
   TC - TEMPERATURE IN CELSIUS
  WCI - WIND CHILL INDEX
   HX - HEAT INDEX
  VSB - VISIBILITY





USA.gov is the U.S. government's official web portal to all federal, state and local government web resources and services.